Location: Grasslands National Park East Block
(49.0708°N, 106.5295°W)
Time: 13:10:35
(UTC-06:00)

Daily predictions for brighter satellites

Satellite Brightness Start Highest point End
(mag) Time Altitude Azimuth Time Altitude Azimuth Time Altitude Azimuth
Nadezhda 1 Rocket 4.5 21:24:00 10° SSE 21:29:56 44° E 21:35:56 10° NNE
ASTEX 1 3.6 21:25:21 10° SSE 21:30:10 58° E 21:34:58 10° N
RESURS DK-1 2.4 21:26:46 10° SSW 21:30:54 86° WNW 21:35:05 10° NNE
Meteor 1-19 Rocket 4.4 21:27:03 10° S 21:32:43 57° E 21:38:20 10° NNE
Cosmos 1455 Rocket 3.9 21:29:01 10° NNW 21:33:18 52° W 21:37:31 10° S
Cosmos 1975 4.0 21:30:37 10° NNW 21:34:30 45° W 21:38:23 10° SSW
Okean 1 4.1 21:32:41 10° SSW 21:36:34 55° WNW 21:40:30 10° N
Cosmos 1538 Rocket 4.2 21:31:33 10° SSW 21:36:43 81° WNW 21:41:56 10° NNE
Terra 3.6 21:33:57 10° ESE 21:37:20 20° ENE 21:40:43 10° NNE
Cosmos 1346 3.4 21:35:56 10° SSE 21:38:33 39° E 21:41:12 10° NNE
Helios 1B rocket 2.9 21:35:24 10° N 21:39:31 66° WNW 21:43:36 10° SSW
CRYOSAT 2 4.5 21:35:31 10° SSE 21:40:18 63° E 21:45:06 10° N
GENESIS II 4.3 21:36:39 10° NW 21:40:39 75° NE 21:44:34 10° SE
Cosmos 405 Rocket 2.7 21:37:18 10° S 21:41:00 62° E 21:44:48 10° NNE
DEBRIS 4.4 21:38:31 10° SSW 21:42:20 45° SE 21:54:45 10° ENE
Aureole 3 Rocket 3.7 21:38:02 10° S 21:44:31 68° E 21:49:07 10° NNE
Meteor 1-29 3.5 21:41:31 10° N 21:44:53 61° WNW 21:48:13 10° SSW
YAOGAN 6 3.1 21:41:32 10° S 21:44:59 56° W 21:48:27 10° NNW
Cosmos 923 Rocket 4.1 21:40:05 10° S 21:45:18 60° ESE 21:50:32 10° NNE
Cosmos 1656 Rocket 4.0 21:39:55 10° NNW 21:45:18 64° WSW 21:50:43 10° SSE
MOS 1-B Rocket 4.1 21:40:49 10° SSE 21:46:32 76° ENE 21:53:01 10° NNW
NOSS 2-2 (E) 3.7 21:43:03 10° SSW 21:47:03 55° SE 21:51:51 10° NE
Cosmos 1238 Rocket 4.3 21:41:59 10° SSE 21:48:31 55° E 21:54:53 10° NNE
H-2A R/B 3.8 21:45:35 10° ESE 21:49:05 23° ENE 21:52:37 10° N
Cosmos 1980 Rocket 4.3 21:47:39 10° N 21:51:19 17° NE 21:54:58 10° ENE
Cosmos 1939 Rocket 4.5 21:48:23 10° SSW 21:51:52 31° W 21:55:23 10° NNW
NOSS 5 (C) 4.5 21:49:04 10° SW 21:52:25 72° NW 21:55:30 10° NE
COSMOS 2455 4.2 21:48:27 10° NW 21:53:46 33° WSW 21:59:03 10° S
MetOp-A 4.2 21:48:24 10° SSE 21:53:46 89° ENE 21:59:11 10° NNW
Cosmos 1441 Rocket 3.5 21:51:23 10° S 21:54:58 47° E 21:58:35 10° NNE
Cosmos 1437 3.6 21:53:26 10° SSW 21:56:36 53° WNW 21:59:48 10° N
Meteor 1-13 Rocket 4.4 21:50:52 10° S 21:56:50 89° W 22:02:47 10° NNE
Cosmos 2341 Rocket 4.4 21:51:45 10° N 21:57:53 49° ENE 22:03:42 12° SSE
Cosmos 1943 Rocket 4.1 21:54:38 10° NW 21:59:05 25° WSW 22:03:30 10° SSW
Cosmos 1818 3.6 21:59:25 10° SW 22:04:53 90° NW 22:10:23 10° NE
ERS-1 Rocket 3.6 22:02:53 10° S 22:07:48 53° W 22:12:44 10° NNW
Okean 1-7 Rocket 3.6 22:03:40 10° S 22:08:03 64° E 22:12:31 10° NNE
H-2A R/B 2.1 22:04:42 12° SSE 22:09:07 60° ENE 22:14:06 10° N
NOAA 11 4.5 22:05:10 10° S 22:10:35 67° WSW 22:16:02 10° NNW
COSMOS 2406 3.2 22:06:15 10° SSW 22:11:58 77° ESE 22:17:41 10° NNE
Cosmos 1743 4.4 22:11:40 10° NNW 22:15:07 31° W 22:18:33 10° SSW
USA 267 4.5 22:12:29 10° E 22:16:43 18° ESE 22:19:33 14° SSE
Cosmos 2112 Rocket 3.9 22:12:58 10° SSW 22:18:11 74° ESE 22:23:23 10° NNE
Cosmos 2278 4.1 22:13:40 10° NNW 22:19:17 54° NE 22:23:52 15° SE
ARGOS 3.3 22:13:59 10° S 22:19:23 76° WSW 22:24:50 10° NNW
Cosmos 1624 Rocket 4.0 22:17:04 10° NNW 22:22:22 79° ENE 22:26:35 16° SSE
DNEPR-1 R/B 4.5 22:20:45 10° NW 22:24:42 38° WSW 22:28:12 14° S
Cosmos 1892 Rocket 4.1 22:21:42 16° SSE 22:24:58 42° E 22:29:10 10° NNE
SL-24 DEB 4.2 22:22:33 14° SSE 22:26:31 76° E 22:31:09 10° N
Cosmos 2082 Rocket 3.6 22:24:51 15° SE 22:27:07 19° E 22:30:58 10° ENE
Cosmos 2228 3.5 22:23:43 10° N 22:27:54 45° ENE 22:30:40 19° SE
Okean 2 3.3 22:24:43 12° S 22:28:31 71° E 22:32:35 10° NNE
IGS 5A 4.1 22:26:01 18° SE 22:28:47 43° ENE 22:32:45 10° N
SL-27 R/B 2.4 22:25:27 10° SSW 22:29:06 82° ESE 22:32:47 10° NNE
NOSS 2-2 (D) 3.7 22:25:43 10° SW 22:29:50 80° NW 22:34:49 10° NE
Cosmos 1437 Rocket 2.7 22:26:17 10° NNW 22:30:07 83° W 22:32:58 17° S
USA 245 3.6 22:32:15 14° SSW 22:34:17 34° WSW 22:36:33 10° NNW
SeaSat 1 4.2 22:30:30 10° E 22:34:19 23° NE 22:38:09 10° N
Cosmos 921 Rocket 3.2 22:30:08 10° NNW 22:34:38 64° ENE 22:37:35 21° SE
CENTAUR R/B 4.1 22:28:15 10° NW 22:35:23 38° WSW 22:42:55 10° S
Cosmos 405 4.1 22:32:02 10° NNW 22:35:24 39° W 22:38:31 11° SSW
Cosmos 1606 Rocket 3.5 22:31:11 10° NNW 22:35:32 82° W 22:38:50 17° S
Cosmos 2181 Rocket 4.2 22:30:48 13° S 22:36:26 60° E 22:42:38 10° NNE
Cosmos 192 4.3 22:31:46 10° SSW 22:36:41 87° ESE 22:41:38 10° NNE
Cosmos 2369 3.8 22:31:49 10° NNW 22:37:35 70° ENE 22:41:44 19° SE
Cosmos 2056 Rocket 3.5 22:35:43 10° NNW 22:40:57 80° WSW 22:44:38 19° SSE
PSLV R/B 3.9 22:40:46 25° ESE 22:41:44 33° ENE 22:44:19 10° N
Aureole 1 Rocket 2.8 22:38:35 10° SW 22:41:48 57° WNW 22:44:45 10° NNE
Cosmos 1680 Rocket 4.0 22:36:58 10° SW 22:42:09 64° WNW 22:47:21 10° NNE
ATLAS CENTAUR R/B 4.1 22:45:13 10° N 22:46:14 11° NNE 22:47:14 10° NE
Cosmos 1726 Rocket 3.6 22:42:31 10° NNW 22:46:52 75° W 22:49:53 19° S
SL-16 R/B 4.4 22:44:06 10° N 22:47:50 17° NE 22:51:32 10° ENE
NOSS 2-2 (C) 4.3 22:44:33 10° WSW 22:48:41 59° NW 22:53:40 10° NE
Cosmos 1697 Rocket 3.3 22:44:34 10° NNW 22:50:01 48° NE 22:53:56 18° ESE
Cosmos 2058 Rocket 3.0 22:46:31 10° N 22:50:57 89° E 22:53:46 22° S
COSMOS 2487 3.4 22:53:27 27° SE 22:54:13 30° ESE 22:57:25 10° NE
USA 234 4.0 22:48:21 10° E 22:54:41 53° NNE 23:01:00 10° WNW
TELKOM 3 3.5 22:53:09 10° W 22:55:37 58° SSW 22:56:43 34° SE
SPOT 5 4.1 22:53:01 10° SSW 22:56:52 31° W 23:00:46 10° NNW
Lacrosse 5 rocket 3.5 22:53:07 10° WNW 22:57:13 30° N 23:01:21 10° ENE
CZ-4B R/B 4.2 22:52:50 10° NNE 22:57:28 36° E 22:59:51 24° SE
SL-19 R/B 4.3 22:53:44 10° NNE 22:59:06 55° ESE 23:02:27 22° S
CARTOSAT-1 3.5 22:56:52 24° SSE 22:59:26 87° WSW 23:03:48 10° NNW
Landsat 7 4.1 22:56:13 19° S 22:59:33 65° WSW 23:04:19 10° NNW
SPOT 1/Viking Rocket 4.3 22:56:00 14° S 23:00:16 46° W 23:05:16 10° NNW
SL-19 R/B 4.5 23:02:08 26° SSE 23:04:36 80° ENE 23:08:34 10° NNW
Cosmos 1025 Rocket 4.3 23:00:43 10° SW 23:04:43 39° WNW 23:08:45 10° N
Cosmos 1766 4.0 23:03:57 10° N 23:07:41 40° ENE 23:09:10 28° ESE
Cosmos 1833 Rocket 3.3 23:10:09 25° SSE 23:12:39 38° ESE 23:17:49 10° NE
Cosmos 1452 Rocket 3.5 23:08:00 10° NNW 23:13:19 85° ENE 23:16:14 27° SSE
Cosmos 1066 Rocket 4.2 23:10:31 23° S 23:14:00 68° E 23:19:36 10° NNE
Cosmos 1656 3.6 23:09:06 10° NNW 23:14:35 88° WSW 23:17:39 27° SSE
Terra 2.0 23:11:45 24° S 23:14:37 65° WSW 23:19:23 10° NNW
Spot 4 3.8 23:16:39 29° SSE 23:19:08 79° ENE 23:23:58 10° NNW
Cosmos 1812 Rocket 3.8 23:16:45 10° N 23:21:12 59° ENE 23:23:07 32° SE
SL-8 Rocket 4.2 23:16:46 10° NNW 23:22:58 69° W 23:27:14 21° S
ISS -2.4 23:25:07 24° E 23:25:07 24° E 23:26:42 10° ENE
H-2A R/B 2.7 23:22:16 24° SSW 23:24:46 51° W 23:29:13 10° NNW
Cosmos 2366 rocket 4.0 23:20:19 10° N 23:26:32 84° W 23:30:17 25° S
Meteor 1-4 Rocket 2.7 23:25:09 10° NNW 23:28:47 66° W 23:29:58 39° SSW
BREEZE-M DEB (TANK) 4.4 23:35:05 15° E 23:35:05 15° E 23:36:33 10° E
Cosmos 1980 Rocket 2.4 23:30:50 10° NNW 23:36:31 65° ENE 23:39:36 27° SE
Cosmos 1626 Rocket 3.4 23:35:05 34° S 23:36:56 84° E 23:41:16 10° N
ALOS 2 3.8 23:37:45 22° ESE 23:39:39 31° ENE 23:43:32 10° N
Meteor 2-21 Rocket 4.4 23:34:16 10° NNW 23:40:21 80° W 23:43:43 28° S
CZ-4C R/B 3.0 23:40:59 48° S 23:41:50 73° WSW 23:45:25 10° NNW
Cosmos 2322 Rocket 3.5 23:38:57 10° NNW 23:44:06 33° NE 23:48:24 14° ESE
Meteor 1-22 Rocket 4.2 23:39:54 10° NNW 23:45:09 67° W 23:47:49 30° S
Cosmos 1805 3.5 23:41:50 10° N 23:45:42 57° ENE 23:46:42 42° SE
Timation 2 Rocket 4.3 23:43:43 29° SSE 23:46:30 47° ESE 23:52:23 10° NE
H-2A R/B 3.9 23:45:23 10° SW 23:49:00 20° W 23:52:40 10° NW
Cosmos 1825 Rocket 4.2 23:49:14 34° SE 23:50:13 39° E 23:54:15 10° NNE
CZ-4 R/B 4.2 23:48:42 10° N 23:53:41 66° WNW 23:56:53 22° SSW
